• In Belgien
  • Länderverzeichnis
  • Für 7 Tage
  • Wassertemperatur
  • Satellitenkarten
  • Wetterkarte
  • Widgets
  • user-avatar
    Anmelden

    Stündliche Wetter Jechegnadsor

    Heute, 25 September, Dienstag

    Zeit Temperatur Niederschläge Wind Luftdruck Luftfeuchtigkeit
    00:00 +18°C° 0 mm 1 m/S 655 mmHg 60%
    01:00 +18°C° 0 mm 1 m/S 655 mmHg 59%
    02:00 +16°C° 0 mm 1 m/S 655 mmHg 57%
    03:00 +16°C° 0 mm 1 m/S 655 mmHg 56%
    04:00 +16°C° 0 mm 1 m/S 655 mmHg 55%
    05:00 +15°C° 0 mm 1 m/S 655 mmHg 55%
    06:00 +15°C° 0 mm 1 m/S 654 mmHg 54%
    07:00 +18°C° 0 mm 1 m/S 655 mmHg 49%
    08:00 +21°C° 0 mm 1 m/S 655 mmHg 43%
    09:00 +23°C° 0 mm 1 m/S 656 mmHg 38%
    10:00 +24°C° 0 mm 2 m/S 656 mmHg 35%
    11:00 +25°C° 0 mm 2 m/S 656 mmHg 33%
    12:00 +26°C° 0 mm 2 m/S 655 mmHg 30%
    13:00 +27°C° 0 mm 2 m/S 655 mmHg 29%
    14:00 +27°C° 0 mm 2 m/S 655 mmHg 28%
    15:00 +27°C° 0 mm 2 m/S 654 mmHg 27%
    16:00 +26°C° 0 mm 1 m/S 654 mmHg 31%
    17:00 +24°C° 0 mm 1 m/S 653 mmHg 35%
    18:00 +22°C° 0 mm 1 m/S 653 mmHg 38%
    19:00 +22°C° 0 mm 1 m/S 653 mmHg 41%
    20:00 +21°C° 0 mm 1 m/S 653 mmHg 44%
    21:00 +20°C° 0 mm 1 m/S 653 mmHg 47%
    22:00 +20°C° 0.1 mm 1 m/S 653 mmHg 51%
    23:00 +19°C° 0.1 mm 1 m/S 653 mmHg 55%

    Morgen, 26 September, Mittwoch

    Zeit Temperatur Niederschläge Wind Luftdruck Luftfeuchtigkeit
    00:00 +19°C° 0.1 mm 1 m/S 653 mmHg 59%
    01:00 +19°C° 0.2 mm 1 m/S 653 mmHg 61%
    02:00 +18°C° 0.2 mm 1 m/S 653 mmHg 62%
    03:00 +18°C° 0.2 mm 1 m/S 653 mmHg 64%
    04:00 +18°C° 0 mm 1 m/S 653 mmHg 65%
    05:00 +16°C° 0 mm 1 m/S 653 mmHg 66%
    06:00 +16°C° 0 mm 1 m/S 653 mmHg 67%
    07:00 +18°C° 0 mm 2 m/S 654 mmHg 59%
    08:00 +20°C° 0 mm 2 m/S 654 mmHg 51%
    09:00 +23°C° 0 mm 2 m/S 655 mmHg 44%
    10:00 +24°C° 0.1 mm 2 m/S 655 mmHg 41%
    11:00 +25°C° 0.1 mm 2 m/S 655 mmHg 38%
    12:00 +26°C° 0.1 mm 2 m/S 655 mmHg 35%
    13:00 +26°C° 0.2 mm 2 m/S 655 mmHg 35%
    14:00 +26°C° 0.2 mm 2 m/S 654 mmHg 35%
    15:00 +26°C° 0.2 mm 2 m/S 654 mmHg 35%
    16:00 +24°C° 0.1 mm 2 m/S 654 mmHg 41%
    17:00 +23°C° 0.1 mm 2 m/S 654 mmHg 48%
    18:00 +20°C° 0.1 mm 2 m/S 653 mmHg 54%
    19:00 +20°C° 0 mm 2 m/S 654 mmHg 58%
    20:00 +19°C° 0 mm 2 m/S 654 mmHg 63%
    21:00 +19°C° 0 mm 3 m/S 655 mmHg 67%
    22:00 +18°C° 0.1 mm 3 m/S 655 mmHg 69%
    23:00 +18°C° 0.1 mm 3 m/S 655 mmHg 71%

    übermorgen, 27 September, Donnerstag

    Zeit Temperatur Niederschläge Wind Luftdruck Luftfeuchtigkeit
    00:00 +17°C° 0.1 mm 2 m/S 655 mmHg 73%
    01:00 +17°C° 0 mm 2 m/S 655 mmHg 75%
    02:00 +17°C° 0 mm 2 m/S 655 mmHg 76%
    03:00 +16°C° 0 mm 2 m/S 655 mmHg 78%
    04:00 +16°C° 0 mm 2 m/S 655 mmHg 79%
    05:00 +15°C° 0 mm 2 m/S 655 mmHg 79%
    06:00 +15°C° 0 mm 2 m/S 656 mmHg 80%
    07:00 +17°C° 0 mm 2 m/S 656 mmHg 71%
    08:00 +19°C° 0 mm 2 m/S 657 mmHg 63%
    09:00 +21°C° 0 mm 1 m/S 658 mmHg 54%
    10:00 +21°C° 0 mm 2 m/S 658 mmHg 50%
    11:00 +23°C° 0 mm 2 m/S 658 mmHg 46%
    12:00 +24°C° 0 mm 2 m/S 658 mmHg 41%
    13:00 +25°C° 0 mm 2 m/S 658 mmHg 40%
    14:00 +25°C° 0 mm 2 m/S 658 mmHg 39%
    15:00 +25°C° 0 mm 2 m/S 657 mmHg 38%
    16:00 +24°C° 0 mm 2 m/S 657 mmHg 44%
    17:00 +21°C° 0 mm 2 m/S 657 mmHg 50%
    18:00 +21°C° 0 mm 1 m/S 657 mmHg 56%
    19:00 +20°C° 0 mm 1 m/S 657 mmHg 60%
    20:00 +19°C° 0 mm 2 m/S 657 mmHg 65%
    21:00 +18°C° 0 mm 2 m/S 658 mmHg 69%
    22:00 +18°C° 0 mm 2 m/S 658 mmHg 71%
    23:00 +17°C° 0 mm 2 m/S 658 mmHg 72%

    28 September, Freitag

    Zeit Temperatur Niederschläge Wind Luftdruck Luftfeuchtigkeit
    00:00 +17°C° 0 mm 2 m/S 657 mmHg 74%
    01:00 +16°C° 0 mm 1 m/S 657 mmHg 74%
    02:00 +16°C° 0 mm 1 m/S 657 mmHg 73%
    03:00 +16°C° 0 mm 1 m/S 657 mmHg 73%
    04:00 +15°C° 0 mm 1 m/S 657 mmHg 73%
    05:00 +15°C° 0 mm 1 m/S 657 mmHg 73%
    06:00 +15°C° 0 mm 1 m/S 657 mmHg 73%
    07:00 +18°C° 0 mm 1 m/S 658 mmHg 65%
    08:00 +20°C° 0 mm 1 m/S 659 mmHg 57%
    09:00 +22°C° 0 mm 1 m/S 659 mmHg 49%
    10:00 +23°C° 0 mm 2 m/S 659 mmHg 45%
    11:00 +24°C° 0 mm 2 m/S 659 mmHg 41%
    12:00 +25°C° 0 mm 2 m/S 659 mmHg 38%
    13:00 +25°C° 0 mm 2 m/S 659 mmHg 36%
    14:00 +25°C° 0 mm 2 m/S 658 mmHg 35%
    15:00 +26°C° 0 mm 2 m/S 658 mmHg 34%
    16:00 +24°C° 0 mm 2 m/S 658 mmHg 40%
    17:00 +22°C° 0 mm 1 m/S 657 mmHg 45%
    18:00 +21°C° 0 mm 1 m/S 657 mmHg 51%
    19:00 +20°C° 0 mm 1 m/S 657 mmHg 54%
    20:00 +20°C° 0 mm 1 m/S 657 mmHg 58%
    21:00 +18°C° 0 mm 2 m/S 657 mmHg 61%
    22:00 +19°C° 0 mm 1 m/S 657 mmHg 61%
    23:00 +19°C° 0 mm 1 m/S 657 mmHg 60%

    29 September, Samstag

    Zeit Temperatur Niederschläge Wind Luftdruck Luftfeuchtigkeit
    00:00 +18°C° 0 mm 1 m/S 657 mmHg 60%
    01:00 +18°C° 0 mm 1 m/S 657 mmHg 57%
    02:00 +18°C° 0 mm 1 m/S 656 mmHg 55%
    03:00 +16°C° 0 mm 1 m/S 656 mmHg 53%
    04:00 +16°C° 0 mm 1 m/S 656 mmHg 53%
    05:00 +16°C° 0 mm 1 m/S 656 mmHg 54%
    06:00 +15°C° 0 mm 1 m/S 656 mmHg 54%
    07:00 +19°C° 0 mm 1 m/S 656 mmHg 51%
    08:00 +21°C° 0 mm 1 m/S 657 mmHg 47%
    09:00 +23°C° 0 mm 2 m/S 657 mmHg 43%
    10:00 +24°C° 0 mm 2 m/S 657 mmHg 39%
    11:00 +25°C° 0 mm 2 m/S 657 mmHg 36%
    12:00 +26°C° 0 mm 2 m/S 657 mmHg 33%
    13:00 +27°C° 0 mm 2 m/S 656 mmHg 31%
    14:00 +27°C° 0 mm 2 m/S 656 mmHg 29%
    15:00 +27°C° 0 mm 2 m/S 655 mmHg 27%
    16:00 +26°C° 0 mm 2 m/S 655 mmHg 31%
    17:00 +24°C° 0 mm 1 m/S 655 mmHg 35%
    18:00 +22°C° 0 mm 1 m/S 654 mmHg 39%
    19:00 +22°C° 0 mm 1 m/S 654 mmHg 38%
    20:00 +21°C° 0 mm 1 m/S 655 mmHg 38%
    21:00 +20°C° 0 mm 2 m/S 655 mmHg 38%
    22:00 +20°C° 0 mm 2 m/S 655 mmHg 38%
    23:00 +19°C° 0 mm 2 m/S 654 mmHg 38%

    30 September, Sonntag

    Zeit Temperatur Niederschläge Wind Luftdruck Luftfeuchtigkeit
    00:00 +19°C° 0 mm 2 m/S 654 mmHg 39%
    01:00 +19°C° 0 mm 2 m/S 654 mmHg 40%
    02:00 +18°C° 0 mm 2 m/S 654 mmHg 41%
    03:00 +18°C° 0 mm 2 m/S 654 mmHg 43%
    04:00 +18°C° 0 mm 2 m/S 654 mmHg 43%
    05:00 +18°C° 0 mm 2 m/S 654 mmHg 44%
    06:00 +17°C° 0 mm 2 m/S 654 mmHg 44%
    07:00 +20°C° 0 mm 2 m/S 655 mmHg 39%
    08:00 +23°C° 0 mm 2 m/S 655 mmHg 34%
    09:00 +25°C° 0 mm 2 m/S 656 mmHg 29%
    10:00 +26°C° 0 mm 2 m/S 656 mmHg 27%
    11:00 +27°C° 0 mm 3 m/S 656 mmHg 25%
    12:00 +28°C° 0 mm 3 m/S 655 mmHg 23%
    13:00 +28°C° 0 mm 3 m/S 655 mmHg 23%
    14:00 +29°C° 0 mm 3 m/S 655 mmHg 24%
    15:00 +29°C° 0 mm 3 m/S 654 mmHg 24%
    16:00 +27°C° 0.1 mm 2 m/S 654 mmHg 27%
    17:00 +26°C° 0.1 mm 2 m/S 654 mmHg 30%
    18:00 +24°C° 0.1 mm 2 m/S 653 mmHg 34%
    19:00 +23°C° 0 mm 2 m/S 654 mmHg 34%
    20:00 +23°C° 0 mm 2 m/S 654 mmHg 34%
    21:00 +23°C° 0 mm 2 m/S 654 mmHg 34%
    22:00 +21°C° 0 mm 2 m/S 654 mmHg 34%
    23:00 +21°C° 0 mm 2 m/S 654 mmHg 34%
    Mehr zeigen